レモン彗星

C/2016 X1 ( Lemmon )

English version
Home page
Updated on November 23, 2017

---------------------------------------------------------------------

・ プロフィール

発見日 2016年12月8日
発見光度 20.1等
発見者 G. J. Leonard (Mount Lemmon)

・ 写真集

・ 軌道要素

Epoch 2019 Apr. 27.0 TT = JDT 2458600.5
T 2019 Apr. 29.98322 TT                                 MPCW
q   7.5627418            (2000.0)            P               Q
z  +0.0005329      Peri.  224.58260     -0.44371978     -0.78457907
 +/-0.0000166      Node   256.42663     +0.89492436     -0.36250661
e   0.9959697      Incl.   26.45608     +0.04715015     -0.50301554
From 46 observations 2016 Nov. 26-2017 Oct. 16, mean residual 0".4.

・ 光度変化

        m1 = 6.0 + 5 logΔ + 10.0 log r

---------------------------------------------------------------------

軌道要素はM.P.E.C. 2017-V13に掲載されたものです。
光度グラフはComet for Windowsで作成したものです。

---------------------------------------------------------------------

Copyright(C) Seiichi Yoshida (comet@aerith.net). All rights reserved.